ZHONGXING-2E

Last updated on Thu Oct 30 2025 00:02:52 GMT+0000 (Coordinated Universal Time)

1 49062U 21071A 25302.57818212 -.00000281 00000+0 00000+0 0 9998 2 49062 0.0530 61.8512 0001701 200.3967 82.1318 1.00268471 15727
UTC large
Height (km)
Speed (km/s)
/
Latitude / Longitude
Inclination (degrees)
Orbital Period (minutes)
Azimuth
Elevation
Range (km)
Doppler Factor

Next 0 passes for location: London (51.5072 / 0.1276)

Sorry there are no passes over London.